This is the latest recevied weather packets stored in our database for station/object KY0TEQ-13. If no packets are shown the sender has not sent any weather packets the latest 10 day(s).
| Time | Temp. | Humidity | Pressure | Rain* | Wind** | Luminosity | Snow |
|---|---|---|---|---|---|---|---|
| 1788164389 | 16.11° C | 60% | 1311.2 hPa | 0 mm | - | 0 W/m² | - |
| 1788164085 | 16.11° C | 59% | 1311 hPa | 0 mm | - | 0 W/m² | - |
| 1788163780 | 15.56° C | 62% | 1311 hPa | 0 mm | - | 0 W/m² | - |
| 1788163475 | 15.56° C | 62% | 1311.1 hPa | 0 mm | - | 0 W/m² | - |
| 1788163171 | 15.56° C | 63% | 1311.2 hPa | 0 mm | - | 0 W/m² | - |
| 1788162866 | 15.56° C | 62% | 1311.2 hPa | 0 mm | - | 0 W/m² | - |
| 1788162561 | 14.44° C | 65% | 1311.2 hPa | 0 mm | - | 0 W/m² | - |
| 1788162260 | 14.44° C | 67% | 1310.8 hPa | 0 mm | - | 0 W/m² | - |
| 1788161955 | 15° C | 66% | 1310.6 hPa | 0 mm | - | 0 W/m² | - |
| 1788161654 | 15.56° C | 62% | 1310.7 hPa | 0 mm | - | 0 W/m² | - |
| 1788161349 | 15.56° C | 59% | 1310.6 hPa | 0 mm | - | 0 W/m² | - |
| 1788161046 | 15° C | 61% | 1310.5 hPa | 0 mm | - | 0 W/m² | - |
| 1788160742 | 15° C | 62% | 1310.6 hPa | 0 mm | - | 0 W/m² | - |
| 1788160441 | 15° C | 63% | 1310.7 hPa | 0 mm | - | 0 W/m² | - |
| 1788160141 | 15° C | 63% | 1310.8 hPa | 0 mm | - | 0 W/m² | - |
| 1788159840 | 15° C | 62% | 1310.8 hPa | 0 mm | - | 0 W/m² | - |
| 1788159534 | 15° C | 61% | 1310.6 hPa | 0 mm | - | 0 W/m² | - |
| 1788159232 | 15.56° C | 60% | 1310.7 hPa | 0 mm | - | 0 W/m² | - |
| 1788158927 | 15.56° C | 60% | 1310.5 hPa | 0 mm | - | 0 W/m² | - |
| 1788158622 | 15° C | 61% | 1310.6 hPa | 0 mm | - | 0 W/m² | - |
| 1788158318 | 15.56° C | 60% | 1310.6 hPa | 0 mm | - | 0 W/m² | - |
| 1788158013 | 15.56° C | 61% | 1310.5 hPa | 0 mm | - | 0 W/m² | - |
| 1788157707 | 15° C | 61% | 1310.1 hPa | 0 mm | - | 0 W/m² | - |
| 1788157402 | 14.44° C | 64% | 1310.2 hPa | 0 mm | - | 0 W/m² | - |
| 1788157101 | 14.44° C | 65% | 1310.4 hPa | 0 mm | - | 0 W/m² | - |
* Rain latest hour (hover to see other rain measurements)
** Current wind speed in m/s (hover to see current wind gust speed)